PROFILE

 METAR AND TAF INFORMATION
ADDS - METARS form results

(1441 UTC 22 January 2019)
http://aviationweather.gov/metar/data/
 
LIPZ 221420Z 05005KT CAVOK 06/M02 Q1005 NOSIG
LIPZ 221350Z 05006KT CAVOK 06/M02 Q1005 NOSIG
TAF COR LIPZ 221117Z 2212/2318 03012KT CAVOK TEMPO 2220/2222 3000 RASN BKN010 TEMPO 2222/2312 1000 SN BKN008 

 AIRPORT MAP

 RUNWAY INFORMATION
Runway 04L Runway length 9121 ft Runway width 148 ft
Runway elevation 7 ft Runway displaced threshold 308 ft Runway heading 42
Runway 22R Runway length 9121 ft Runway width 148 ft
Runway elevation 7 ft Runway displaced threshold 0 ft Runway heading 222
Runway 04R Runway length 10827 ft Runway width 148 ft
Runway elevation 7 ft Runway displaced threshold 0 ft Runway heading 42
Runway 22L Runway length 10827 ft Runway width 148 ft
Runway elevation 7 ft Runway displaced threshold 0 ft Runway heading 222

 AIRPORT FREQUENCIES
Type APP Name APP Frequency 118.9 MHZ
Type ATIS Name ATIS Frequency 122.225 MHZ
Type GND Name GND Frequency 121.7 MHZ
Type TWR Name TWR Frequency 120.2 MHZ

 AIRPORT NEAR NAVIGATION AIDS
Type VOR-DME Name Tessera Frequency 115300 KHZ
Type NDB Name Venezia Frequency 379 KHZ